DW9580 Weather Reports


time (UTC)temp
C
wind
direction
speed
KPH
gust
KPH
rain 1hr
cm
rain 24hr
cm
rain mn
cm
humidity
%
barometer
mb
20260506113205 8 314 4.8 14.5 0.03 0.23 0.15 78 1006.1
20260506112706 9 311 4.8 14.5 0.03 0.23 0.15 78 1006.1
20260506111705 9 323 4.8 14.5 0.03 0.23 0.15 78 1006.0
20260506111205 9 315 4.8 9.7 0.03 0.23 0.15 78 1006.0
20260506110706 9 328 3.2 9.7 0.03 0.23 0.15 78 1006.0
20260506110205 9 329 4.8 8.0 0.03 0.23 0.15 78 1006.0
20260506105705 9 329 4.8 9.7 0.03 0.23 0.15 78 1006.0
20260506105205 9 328 3.2 12.9 0.03 0.23 0.15 78 1006.0
20260506104706 9 328 3.2 12.9 0.03 0.23 0.15 78 1006.0
20260506104205 8 328 4.8 9.7 0.00 0.20 0.15 78 1006.0
20260506103705 8 331 4.8 9.7 0.00 0.20 0.15 77 1006.0
20260506103207 8 327 4.8 12.9 0.00 0.20 0.15 78 1005.9
20260506102205 9 326 4.8 12.9 0.00 0.20 0.15 78 1005.9
20260506101704 9 331 4.8 9.7 0.00 0.20 0.15 78 1005.9
20260506100705 9 333 3.2 9.7 0.00 0.20 0.15 77 1005.7
20260506100221 9 333 3.2 9.7 0.00 0.20 0.15 78 1005.7
20260506095206 9 333 3.2 12.9 0.00 0.20 0.15 78 1005.6
20260506094705 8 331 4.8 12.9 0.00 0.20 0.15 77 1005.6
20260506094206 8 331 4.8 9.7 0.00 0.20 0.15 77 1005.7
20260506093705 8 335 4.8 9.7 0.00 0.20 0.15 77 1005.6
20260506093205 8 336 3.2 12.9 0.00 0.20 0.15 77 1005.6
20260506092705 8 336 3.2 12.9 0.00 0.20 0.15 77 1005.6
20260506092209 8 336 3.2 12.9 0.00 0.20 0.15 77 1005.5
20260506091705 8 338 3.2 6.4 0.00 0.20 0.15 77 1005.4
20260506091205 8 340 3.2 12.9 0.00 0.20 0.15 77 1005.4
20260506090705 8 340 3.2 12.9 0.00 0.20 0.15 77 1005.5
20260506090205 8 340 3.2 14.5 0.00 0.20 0.15 77 1005.5
20260506085705 8 339 3.2 14.5 0.00 0.20 0.15 78 1005.4
20260506085205 8 339 3.2 12.9 0.03 0.20 0.15 78 1005.4
20260506084705 8 340 3.2 12.9 0.03 0.20 0.15 78 1005.3
20260506083207 8 340 4.8 9.7 0.03 0.20 0.15 77 1005.2
20260506082205 8 340 3.2 8.0 0.03 0.20 0.15 77 1005.1
20260506081705 8 340 3.2 14.5 0.03 0.20 0.15 77 1005.0
20260506080705 8 340 4.8 16.1 0.03 0.20 0.15 77 1005.0
20260506080206 8 335 4.8 16.1 0.03 0.20 0.15 77 1004.9
20260506073205 8 344 3.2 9.7 0.00 0.18 0.13 77 1004.7
20260506072705 8 343 3.2 9.7 0.00 0.18 0.13 77 1004.6
20260506072205 8 343 4.8 12.9 0.00 0.18 0.13 77 1004.6
20260506071705 8 343 4.8 12.9 0.00 0.18 0.13 77 1004.6
20260506071206 8 344 4.8 12.9 0.00 0.18 0.13 77 1004.6
20260506070705 8 342 4.8 12.9 0.03 0.18 0.13 77 1004.6
20260506070205 8 340 4.8 12.9 0.03 0.18 0.13 77 1004.6
20260506062205 8 331 1.6 6.4 0.03 0.18 0.13 78 1004.3
20260506061206 8 331 1.6 6.4 0.00 0.15 0.10 78 1004.3
20260506060706 8 331 1.6 8.0 0.00 0.15 0.10 78 1004.3
20260506060206 8 331 1.6 8.0 0.00 0.15 0.10 78 1004.1
20260506051205 8 331 1.6 4.8 0.00 0.15 0.10 78 1004.4
20260506050706 8 331 1.6 4.8 0.00 0.15 0.10 78 1004.4
20260506050205 8 331 1.6 6.4 0.03 0.15 0.10 78 1004.3
20260506044706 8 331 3.2 9.7 0.03 0.15 0.10 78 1004.3
20260506044205 8 331 3.2 8.0 0.03 0.15 0.10 78 1004.4
20260506043705 8 333 1.6 8.0 0.03 0.15 0.10 78 1004.4
20260506043205 8 333 1.6 6.4 0.03 0.15 0.10 78 1004.3
20260506042705 8 333 1.6 12.9 0.03 0.15 0.10 78 1004.4
20260506042205 8 333 3.2 12.9 0.03 0.15 0.10 78 1004.3
20260506041705 8 333 3.2 12.9 0.03 0.15 0.10 78 1004.3
20260506041212 8 340 1.6 8.0 0.03 0.15 0.10 78 1004.3
20260506040705 8 340 1.6 8.0 0.03 0.15 0.10 78 1004.3
20260506040232 8 340 3.2 12.9 0.00 0.15 0.08 78 1004.3
20260506035705 8 340 3.2 12.9 0.00 0.15 0.08 78 1004.4
20260506035205 8 340 3.2 12.9 0.00 0.15 0.08 78 1004.4
20260506034705 8 342 3.2 8.0 0.03 0.15 0.08 78 1004.4
20260506033706 8 344 3.2 8.0 0.03 0.15 0.08 78 1004.4
20260506032705 8 343 1.6 8.0 0.03 0.15 0.08 78 1004.5
20260506031708 8 343 3.2 9.7 0.03 0.15 0.08 78 1004.5
20260506031205 8 344 3.2 9.7 0.03 0.15 0.08 78 1004.5
20260506030705 8 344 3.2 8.0 0.03 0.15 0.08 78 1004.5
20260506030205 8 344 1.6 9.7 0.03 0.15 0.08 78 1004.6
20260506025705 8 344 1.6 9.7 0.03 0.15 0.08 78 1004.6
20260506025206 8 344 3.2 12.9 0.00 0.13 0.05 78 1004.7
20260506024705 8 343 3.2 12.9 0.00 0.13 0.05 78 1004.7
20260506024205 8 343 3.2 12.9 0.00 0.13 0.05 78 1004.7
20260506023705 8 342 3.2 6.4 0.00 0.13 0.05 78 1004.7
20260506023207 8 342 1.6 6.4 0.00 0.15 0.05 78 1004.8
20260506022705 8 342 3.2 6.4 0.00 0.15 0.05 78 1004.8
20260506022205 8 342 3.2 12.9 0.00 0.15 0.05 78 1004.8
20260506021705 8 342 3.2 12.9 0.00 0.15 0.05 78 1004.8
20260506021205 8 342 3.2 12.9 0.03 0.15 0.05 78 1004.8
20260506020705 8 347 3.2 8.0 0.03 0.15 0.05 78 1004.8
20260506020206 8 347 3.2 8.0 0.03 0.15 0.05 78 1004.8
20260506015205 8 347 3.2 12.9 0.03 0.15 0.05 78 1004.9
20260506014705 8 347 3.2 12.9 0.03 0.15 0.05 78 1004.9
20260506014206 8 347 4.8 8.0 0.03 0.15 0.05 78 1004.9
20260506013705 8 346 3.2 8.0 0.03 0.15 0.05 78 1004.9
20260506013206 8 346 4.8 8.0 0.03 0.15 0.05 78 1005.0
20260506012705 8 346 4.8 14.5 0.03 0.15 0.05 78 1005.0
20260506012205 8 346 3.2 14.5 0.03 0.15 0.05 78 1005.0
20260506011705 8 346 3.2 9.7 0.00 0.13 0.05 78 1005.0
20260506011205 8 345 4.8 9.7 0.03 0.13 0.05 78 1005.1
20260506010706 8 344 3.2 9.7 0.03 0.13 0.05 78 1005.1
20260506010205 8 344 3.2 9.7 0.03 0.13 0.05 78 1005.1
20260506005207 9 344 3.2 9.7 0.03 0.13 0.05 78 1005.2
20260506004705 8 343 4.8 9.7 0.03 0.13 0.05 78 1005.2
20260506004206 9 343 3.2 9.7 0.03 0.13 0.05 78 1005.2
20260506003205 9 342 3.2 14.5 0.03 0.13 0.05 78 1005.3
20260506002706 9 342 3.2 14.5 0.03 0.13 0.05 78 1005.3
20260506001705 9 350 3.2 9.7 0.00 0.10 0.03 78 1005.4
20260506001209 9 0 3.2 9.7 0.00 0.10 0.03 78 1005.4
20260506000706 9 0 3.2 6.4 0.00 0.10 0.03 78 1005.5
20260505235705 9 0 3.2 8.0 0.00 0.10 0.03 78 1005.6
20260505235205 9 0 3.2 8.0 0.03 0.10 0.03 78 1005.7
20260505234706 9 0 3.2 8.0 0.03 0.10 0.03 78 1005.7
20260505233205 9 0 3.2 9.7 0.03 0.10 0.03 78 1005.8
20260505232706 9 0 3.2 9.7 0.03 0.10 0.03 78 1005.7
20260505232228 9 0 3.2 9.7 0.03 0.10 0.03 78 1005.8
20260505231205 9 0 1.6 6.4 0.03 0.10 0.03 78 1005.9
20260505230706 9 0 1.6 6.4 0.03 0.10 0.03 78 1005.9
20260505230206 9 0 1.6 6.4 0.03 0.10 0.03 78 1006.0
20260505225705 9 0 1.6 9.7 0.05 0.10 0.03 78 1006.0
20260505225205 9 0 1.6 9.7 0.03 0.08 0.00 78 1006.0
20260505224705 9 0 3.2 9.7 0.03 0.08 0.00 78 1006.0
20260505224205 9 0 4.8 9.7 0.03 0.08 0.00 78 1006.0
20260505223705 9 0 3.2 12.9 0.03 0.08 0.00 78 1006.0
20260505223205 9 0 3.2 12.9 0.03 0.08 0.00 78 1006.1
20260505222705 9 0 4.8 9.7 0.03 0.08 0.00 78 1006.1
20260505222205 9 0 3.2 8.0 0.03 0.08 0.00 78 1006.1
20260505221205 9 0 3.2 9.7 0.03 0.08 0.00 78 1006.1
20260505220705 9 0 3.2 9.7 0.03 0.08 0.00 78 1006.2
20260505220206 9 0 3.2 9.7 0.03 0.08 0.08 78 1006.1
20260505215705 9 355 1.6 12.9 0.00 0.05 0.05 78 1006.1
20260505215206 9 355 3.2 14.5 0.00 0.05 0.05 78 1006.2
20260505214206 9 355 4.8 14.5 0.03 0.05 0.05 79 1006.3
20260505213205 9 355 3.2 9.7 0.03 0.05 0.05 79 1006.3
20260505212205 9 355 3.2 9.7 0.03 0.05 0.05 79 1006.3
20260505211705 9 355 4.8 12.9 0.03 0.05 0.05 79 1006.3
20260505211205 9 355 4.8 12.9 0.03 0.05 0.05 79 1006.4
20260505210205 9 355 3.2 8.0 0.03 0.08 0.05 79 1006.4
20260505205705 10 355 3.2 8.0 0.03 0.08 0.05 79 1006.5
20260505205210 10 355 1.6 9.7 0.03 0.08 0.05 79 1006.5
20260505204707 10 355 3.2 9.7 0.00 0.05 0.05 79 1006.5
20260505204206 10 355 3.2 9.7 0.00 0.05 0.05 79 1006.5
20260505203705 10 355 4.8 8.0 0.00 0.05 0.05 79 1006.6
20260505203205 10 355 3.2 8.0 0.03 0.05 0.05 79 1006.6
20260505202205 10 355 3.2 8.0 0.03 0.05 0.05 79 1006.5
20260505200706 10 355 1.6 9.7 0.03 0.05 0.05 79 1006.5
20260505200205 10 355 3.2 9.7 0.03 0.05 0.05 79 1006.4
20260505195705 10 355 3.2 9.7 0.03 0.05 0.05 79 1006.4
20260505194706 10 355 3.2 9.7 0.03 0.05 0.05 80 1006.4
20260505194206 10 355 1.6 9.7 0.03 0.05 0.05 79 1006.4
20260505192705 10 0 3.2 9.7 0.00 0.05 0.03 80 1006.4
20260505192206 10 355 3.2 9.7 0.00 0.05 0.03 80 1006.3
20260505191705 10 355 3.2 9.7 0.00 0.05 0.03 80 1006.3
20260505191205 10 355 3.2 4.8 0.00 0.05 0.03 80 1006.3
20260505190705 10 0 1.6 4.8 0.00 0.05 0.03 80 1006.3
20260505185705 10 351 1.6 12.9 0.00 0.05 0.03 80 1006.2
20260505185206 10 351 4.8 12.9 0.00 0.08 0.03 80 1006.2
20260505184705 10 351 3.2 9.7 0.00 0.08 0.03 80 1006.2
20260505184206 10 355 3.2 9.7 0.00 0.08 0.03 80 1006.2
20260505182705 10 355 1.6 6.4 0.00 0.08 0.03 81 1006.2
20260505181208 10 355 3.2 9.7 0.00 0.08 0.03 81 1006.2
20260505180705 10 355 3.2 9.7 0.00 0.08 0.03 81 1006.3
20260505180205 10 355 4.8 8.0 0.00 0.10 0.03 81 1006.2
20260505175705 10 355 3.2 8.0 0.00 0.10 0.03 82 1006.3
20260505174705 10 355 1.6 6.4 0.00 0.10 0.03 82 1006.3
20260505174205 10 355 1.6 8.0 0.00 0.10 0.03 82 1006.3
20260505173205 10 355 1.6 8.0 0.00 0.13 0.03 82 1006.5
20260505171207 10 355 3.2 9.7 0.00 0.13 0.03 82 1006.5
20260505170706 10 355 1.6 9.7 0.00 0.13 0.03 82 1006.4
20260505170205 10 355 3.2 9.7 0.00 0.13 0.03 82 1006.5
20260505165705 10 355 3.2 12.9 0.00 0.13 0.03 83 1006.4
20260505165208 10 355 3.2 12.9 0.00 0.15 0.03 83 1006.5
20260505164706 10 355 3.2 9.7 0.00 0.15 0.03 83 1006.5
20260505164205 10 355 1.6 9.7 0.00 0.15 0.03 83 1006.5
20260505163706 10 355 1.6 6.4 0.00 0.15 0.03 82 1006.5
20260505163205 11 355 1.6 6.4 0.00 0.15 0.03 82 1006.5
20260505162705 11 355 1.6 4.8 0.00 0.15 0.03 82 1006.5
20260505162205 11 355 1.6 8.0 0.00 0.15 0.03 82 1006.6
20260505161205 11 355 1.6 9.7 0.00 0.15 0.03 83 1006.5
20260505160205 11 355 3.2 12.9 0.00 0.15 0.03 83 1006.6
20260505153205 11 5 3.2 12.9 0.00 0.18 0.03 83 1006.6
20260505152704 11 5 4.8 14.5 0.00 0.20 0.03 83 1006.6
20260505152205 11 5 4.8 14.5 0.00 0.20 0.03 83 1006.6
20260505151705 11 0 6.4 14.5 0.00 0.20 0.03 83 1006.6
20260505151228 11 355 4.8 12.9 0.00 0.20 0.03 83 1006.6
20260505150705 11 355 4.8 14.5 0.00 0.20 0.03 83 1006.6
20260505150205 11 355 4.8 14.5 0.00 0.20 0.03 83 1006.7
20260505140205 11 355 4.8 14.5 0.00 0.23 0.03 82 1006.8
20260505130205 12 355 3.2 9.7 0.00 0.23 0.03 82 1007.3
20260505124707 12 0 3.2 12.9 0.00 0.23 0.03 82 1007.4
20260505124205 12 5 3.2 12.9 0.00 0.23 0.03 82 1007.4
20260505123705 12 5 4.8 12.9 0.00 0.23 0.03 82 1007.4
20260505123205 12 5 4.8 11.3 0.00 0.23 0.03 82 1007.4
20260505122706 12 5 3.2 11.3 0.00 0.23 0.03 82 1007.4
20260505122205 12 5 1.6 12.9 0.00 0.23 0.03 82 1007.5
20260505121705 12 9 3.2 14.5 0.00 0.23 0.03 81 1007.4
20260505121205 12 9 4.8 14.5 0.00 0.23 0.03 82 1007.4
20260505120206 12 17 4.8 12.9 0.00 0.23 0.03 81 1007.4
20260505115706 12 0 3.2 12.9 0.00 0.23 0.03 81 1007.5
20260505114706 12 355 4.8 12.9 0.00 0.23 0.03 82 1007.5
20260505114205 12 336 4.8 12.9 0.00 0.23 0.03 81 1007.5
20260505113705 12 355 3.2 12.9 0.00 0.23 0.03 81 1007.5